Location: Hilton Head Island
(32.2163°N, 80.7526°W)
Time: 13:28:57
(UTC-04:00)

Transit 2A Rocket - Pass Details

Date: 11 February 2026
Orbit: 583 x 900 km, 66.7° (Epoch: 12 March)

Event Time Altitude Azimuth Distance (km) Brightness Sun altitude
Rises 17:08:33 0° 197° (SSW) 3,396 9.0 10.5°
Reaches altitude 10° 17:10:58 10° 195° (SSW) 2,496 8.3 10.1°
Maximum altitude 17:16:47 70° 113° (ESE) 947 5.5 8.9°
Drops below altitude 10° 17:22:47 10° 31° (NNE) 2,577 7.3 7.8°
Sets 17:25:19 0° 29° (NNE) 3,513 8.0 7.3°
